Farmington, MO

5:23 PM CDT on October 22, 2019 (GMT -0500)
Farmington Regional

Weather History for KFAM - September, 2019

Change the Weather History Date:

Monday, September 23, 2019

  Actual Average Record
Temperature  
Mean Temperature 68 °F -  
Max Temperature 80 °F 74 °F 91 °F (2017)
Min Temperature 55 °F 50 °F 37 °F (2012)
Cooling Degree Days 4    
Growing Degree Days 18 (Base 50)    
Moisture  
Dew Point 63 °F    
Average Humidity 79    
Maximum Humidity 100    
Minimum Humidity 36    
Precipitation  
Precipitation 0.00 in - - ()
Sea Level Pressure  
Sea Level Pressure 30.07 in    
Wind  
Wind Speed 7 mph (NW)    
Max Wind Speed 12 mph    
Max Gust Speed 17 mph    
Visibility 10 miles    
Events      
Averages and records for this station are not official NWS values.
T = Trace of Precipitation, MM = Missing Value Source: NWS Daily Summary

Daily Weather History Graph

Daily Weather History Graph

Search for Another Location

Airport or City:

Astronomy

Sep. 23, 2019 Rise Set
Actual Time 6:50 AM CDT 6:57 PM CDT
Civil Twilight 6:24 AM CDT 7:23 PM CDT
Nautical Twilight 5:53 AM CDT 7:54 PM CDT
Astronomical Twilight 5:22 AM CDT 8:25 PM CDT
Moon 12:40 AM CDT (9/23) 3:44 PM CDT (9/23)
Length of Visible Light 12h 59m
Length of Day
12h 07m
Waning Crescent, 33% of the Moon is Illuminated
Sep 23
Waning Crescent
Sep 28
New
Oct 5
First Quarter
Oct 13
Full
Oct 21
Last Quarter

Hourly Weather History & Observations

Time (CDT) Temp. Dew Point Humidity Pressure Visibility Wind Dir Wind Speed Gust Speed Precip Events Conditions
12:56 AM 72.0 °F 72.0 °F 100% 30.00 in 10.0 mi SW 6.9 mph - N/A   Overcast
1:56 AM 73.0 °F 71.1 °F 93% 29.99 in 10.0 mi SSW 6.9 mph - N/A   Mostly Cloudy
2:56 AM 73.0 °F 71.1 °F 93% 30.00 in 10.0 mi WSW 5.8 mph - N/A   Mostly Cloudy
3:38 AM 73.4 °F 71.6 °F 94% 30.00 in 10.0 mi West 5.8 mph - N/A   Overcast
3:56 AM 73.0 °F 71.1 °F 93% 30.00 in 10.0 mi WNW 6.9 mph - N/A   Overcast
4:10 AM 73.4 °F 71.6 °F 94% 30.01 in 10.0 mi WNW 8.1 mph - N/A   Overcast
4:51 AM 71.6 °F 71.6 °F 100% 30.01 in 10.0 mi WNW 6.9 mph - N/A   Overcast
4:56 AM 72.0 °F 71.1 °F 97% 30.01 in 10.0 mi NW 6.9 mph - N/A   Overcast
5:03 AM 71.6 °F 69.8 °F 94% 30.02 in 10.0 mi WNW 5.8 mph - N/A   Overcast
5:10 AM 71.6 °F 69.8 °F 94% 30.02 in 10.0 mi NW 5.8 mph - N/A   Overcast
5:56 AM 71.1 °F 69.1 °F 93% 30.05 in 10.0 mi NW 6.9 mph - N/A   Overcast
6:31 AM 69.8 °F 68.0 °F 94% 30.06 in 10.0 mi NW 8.1 mph - N/A   Overcast
6:40 AM 69.8 °F 68.0 °F 94% 30.06 in 10.0 mi NW 9.2 mph - N/A   Overcast
6:56 AM 70.0 °F 66.9 °F 90% 30.08 in 10.0 mi NNW 9.2 mph 17.3 mph N/A   Overcast
7:46 AM 68.0 °F 66.2 °F 94% 30.07 in 10.0 mi NNW 6.9 mph - N/A   Scattered Clouds
7:56 AM 68.0 °F 66.0 °F 93% 30.09 in 10.0 mi NNW 8.1 mph - N/A   Partly Cloudy
8:56 AM 70.0 °F 64.0 °F 81% 30.10 in 10.0 mi NNW 9.2 mph - N/A   Clear
9:29 AM 69.8 °F 64.4 °F 83% 30.10 in 10.0 mi NNW 9.2 mph - N/A   Mostly Cloudy
9:51 AM 71.6 °F 62.6 °F 73% 30.11 in 10.0 mi NNW 9.2 mph - N/A   Partly Cloudy
9:56 AM 72.0 °F 62.1 °F 71% 30.12 in 10.0 mi North 9.2 mph - N/A   Partly Cloudy
10:56 AM 73.0 °F 60.1 °F 64% 30.14 in 10.0 mi NNE 9.2 mph - N/A   Clear
11:56 AM 75.9 °F 59.0 °F 56% 30.14 in 10.0 mi North 9.2 mph - N/A   Clear
12:56 PM 77.0 °F 57.0 °F 50% 30.13 in 10.0 mi North 11.5 mph - N/A   Clear
1:56 PM 78.1 °F 55.9 °F 46% 30.11 in 10.0 mi Variable 6.9 mph - N/A   Clear
2:56 PM 79.0 °F 52.0 °F 39% 30.10 in 10.0 mi NNW 9.2 mph - N/A   Clear
3:56 PM 80.1 °F 51.1 °F 36% 30.09 in 10.0 mi NNW 6.9 mph - N/A   Clear
4:56 PM 79.0 °F 53.1 °F 40% 30.09 in 10.0 mi NW 8.1 mph - N/A   Clear
5:56 PM 77.0 °F 53.1 °F 43% 30.10 in 10.0 mi NE 5.8 mph - N/A   Clear
6:56 PM 71.1 °F 54.0 °F 55% 30.10 in 10.0 mi NE 4.6 mph - N/A   Clear
7:56 PM 64.9 °F 54.0 °F 68% 30.10 in 10.0 mi Calm Calm - N/A   Clear
8:56 PM 61.0 °F 55.9 °F 83% 30.10 in 10.0 mi Calm Calm - N/A   Clear
9:56 PM 59.0 °F 57.0 °F 93% 30.11 in 10.0 mi Calm Calm - N/A   Clear
10:56 PM 57.0 °F 55.9 °F 96% 30.11 in 10.0 mi Calm Calm - N/A   Clear
11:56 PM 55.9 °F 55.9 °F 100% 30.10 in 10.0 mi Calm Calm - N/A   Clear